Regional Weather Roundup
Issued by NWS

Home | Current Version | Previous Version | Graphics & Text | Print | Product List | Glossary On
Versions: 1 2 3 4 5 6 7 8 9 10 11 12 13 14 15 16 17 18 19 20 21 22 23 24 25 26 27 28 29 30 31 32 33 34 35 36 37 38 39 40 41 42 43 44 45 46 47 48 49 50
000
ASUS43 KDTX 250310
RWRMI
MICHIGAN HOURLY REGIONAL WEATHER ROUNDUP
NATIONAL WEATHER SERVICE DETROIT/PONTIAC MI
1000 PM EST SAT JAN 24 2015

NOTE: "FAIR" INDICATES FEW OR NO CLOUDS BELOW 12,000 FEET WITH NO
SIGNIFICANT WEATHER AND/OR OBSTRUCTION TO VISIBILITY.

MIZ047>049-052>055-059>063-066>070-074>076-081>083-250400-
SOUTHEAST LOWER MICHIGAN

CITY           SKY/WX    TMP DP  RH WIND       PRES   REMARKS
ADRIAN         CLOUDY    35  31  85 W5        29.69S WCI  31
ALMA           CLOUDY    34  32  92 W5        29.65R WCI  30
ANN ARBOR      CLOUDY    35  32  88 W7        29.66S WCI  29
BAD AXE        CLOUDY    32  26  80 N10       29.63R WCI  24
CARO           CLOUDY    34  31  88 NW5       29.63R WCI  30
DETROIT CITY   CLOUDY    38  30  73 W7        29.65R WCI  33
DETROIT        CLOUDY    35  31  85 SW9       29.67R WCI  28
FLINT          CLOUDY    36  32  85 W9        29.64S WCI  29
GROSSE ILE     CLOUDY    36  30  80 W8        29.66R WCI  29
HILLSDALE      CLOUDY    35  33  89 CALM      29.67R
HOWELL         CLOUDY    34  32  94 W8        29.64S FOG     WCI  27

CITY           SKY/WX    TMP DP  RH WIND       PRES   REMARKS
JACKSON        LGT SNOW  34  32  92 W6        29.66S FOG     WCI  29
LAMBERTVILLE   CLOUDY    36  32  87 W7        29.69S WCI  30
LANSING        CLOUDY    34  32  92 W8        29.66S WCI  27
LAPEER         RAIN      34  32  93 W6        29.63R WCI  29
MASON          LGT RAIN  33  32  94 CALM      29.66S
MONROE         CLOUDY    36  30  80 W9        29.67R WCI  29
MT. CLEMENS    CLOUDY    37  31  81 W8        29.62R WCI  30
PONTIAC        CLOUDY    34  31  88 W9          N/A  WCI  27
PORT HOPE        N/A     31  22  69 N9        29.61R WCI  23
PORT HURON     MIX PCPN  34  32  93 W3        29.64R
TRI CITIES     CLOUDY    36  30  79 NW7       29.65R WCI  30
TROY           CLOUDY    38  32  79 W6        29.66R WCI  33
SAGINAW HB     CLOUDY    36  34  93 W6        29.64R WCI  31
$$
MIZ043>046-050>051-056>058-064>065-071>073-077>080-250400-
SOUTHWEST LOWER MICHIGAN

CITY           SKY/WX    TMP DP  RH WIND       PRES   REMARKS
BATTLE CREEK   CLOUDY    36  31  82 SW6       29.67S WCI  31
BENTON HARBOR  CLOUDY    35  33  92 VRB3      29.67F
BIG RAPIDS     CLOUDY    32  32  99 N5        29.64R WCI  27
COLDWATER      CLOUDY    35  31  87 SW6       29.67S WCI  30
FREMONT        LGT SNOW  33  32  96 CALM      29.65S
HOLLAND        CLOUDY    38  33  82 W5        29.67S WCI  34
GRAND RAPIDS   FLURRIES  35  33  92 W3        29.66S
IONIA          LGT SNOW  35  34  96 W6        29.65R WCI  30
KALAMAZOO      CLOUDY    36  30  79 SW3       29.67S
LUDINGTON      CLOUDY    33  29  85 NE7       29.68R WCI  27
MARSHALL       CLOUDY    33  31  91 SW5       29.66S WCI  29
MOUNT PLEASANT CLOUDY    34  30  87 N6        29.64S WCI  29
MUSKEGON       CLOUDY    35  32  88 CALM      29.66S FOG
SOUTH HAVEN    CLOUDY    37  33  86 CALM      29.67S
$$
MIZ016>042-250400-
NORTHERN LOWER MICHIGAN

CITY           SKY/WX    TMP DP  RH WIND       PRES   REMARKS
ALPENA         CLOUDY    23  15  71 NW13G23   29.67R WCI  11
BEAVER ISLAND  MOCLDY    20  12  72 CALM      29.74R
BELLAIRE       CLOUDY    24  16  71 N9        29.72R WCI  14
CADILLAC       CLOUDY    25  22  87 N12G20    29.64S WCI  14
CHARLEVOIX     MOCLDY    20  14  75 N14G22    29.76R WCI   7
FRANKFORT      MOCLDY    26  21  82 N9G16     29.70S WCI  17
GAYLORD        MOCLDY    20  14  77 VRB3      29.65R
GRAYLING       CLOUDY    22  15  76 N9        29.67R WCI  11
HARBOR SPRINGS PTCLDY    19  11  72 CALM      29.72R
HOUGHTON LAKE  CLOUDY    27  19  72 N12       29.64R WCI  17
MANISTEE       CLOUDY    30  21  69 NE12      29.70R WCI  21
OSCODA         CLOUDY    28  18  67 NW15G23   29.64R WCI  16
PELLSTON       MOCLDY    18  11  74 NW8       29.72R WCI   8
ROGERS CITY    CLOUDY    23  17  80 N13G18    29.70R WCI  11
TRAVERSE CITY  CLOUDY    24  17  74 N18G25    29.71R WCI  10
$$
MIZ007>008-015-250400-
EASTERN UPPER MICHIGAN

CITY           SKY/WX    TMP DP  RH WIND       PRES   REMARKS
KINROSS        CLEAR     10   9  92 N9        29.72R WCI  -2
MACKINAC ISLAN CLEAR     17  10  74 N13G18    29.72R WCI   3
S. S. MARIE    FAIR      12   3  67 N8        29.73R WCI   0
MUNISING         N/A     22  12  65 N15       29.76S WCI   9
$$
MIZ004>006-011>014-085-250400-
CENTRAL UPPER MICHIGAN

CITY           SKY/WX    TMP DP  RH WIND       PRES   REMARKS
MANISTIQUE     CLOUDY    20  14  77 N7        29.74R WCI  11
ESCANABA       CLOUDY   N/A N/A N/A MISG        N/A
MENOMINEE      CLOUDY    25  16  68 NE14      29.73R WCI  13
SAWYER-GWINN   LGT SNOW  18  14  86 N14       29.72S WCI   4
$$
MIZ001>003-009>011-084-250400-
WESTERN UPPER MICHIGAN

CITY           SKY/WX    TMP DP  RH WIND       PRES   REMARKS
IRON MOUNTAIN  CLOUDY    20  12  71 N10       29.73R WCI   9
HOUGHTON       FLURRIES  16  10  77 NE6       29.77S WCI   7
COPPER HARBOR    N/A     19   9  65 E10G22    29.82R WCI   7
IRONWOOD       PTCLDY    16   9  73 E10       29.74R WCI   3
$$

ABBREVIATIONS USED IN REMARKS
   TC - TEMPERATURE IN CELSIUS
  WCI - WIND CHILL INDEX
   HX - HEAT INDEX
  VSB - VISIBILITY




USA.gov is the U.S. government's official web portal to all federal, state and local government web resources and services.